Retour au catalogue

FENGYUN 1C DEB

ActifSSO
NORAD 35135·DEBRIS·🇨🇳 China

Lancé May 10, 1999 depuis Taiyuan Satellite Launch Center

Loading…

Prochains Passages (prochaines 24 heures)

TLE

FraisSource: Space-Track

Époque: Sep 14, 2026, 11:35 UTC

1 35135U 99025DLP 26257.48266787  .00000537  00000-0  24870-3 0  9991
2 35135  98.5637 263.6991 0080806 201.7769 157.9968 14.23049102917454

Suivez FENGYUN 1C DEB en temps réel avec AllMySat

Download on the App Store